1491685200.61,54636,10.81,73754.8,-5.71,-6.47,-6.51,0,*56
1491685201.82,54637,10.81,73756.0,-5.71,-6.51,-6.51,0,*50
1491685203.02,54638,10.81,73752.8,-5.71,-6.47,-6.51,0,*58
1491685204.24,54639,10.81,73754.3,-5.73,-6.55,-6.55,0,*5C
1491685205.47,54640,10.81,73754.0,-5.73,-6.55,-6.55,0,*52
1491685206.69,54641,10.81,73760.8,-5.73,-6.55,-6.55,0,*53
1491685207.92,54642,10.81,73758.3,-5.73,-6.55,-6.55,0,*50
1491685209.14,54643,10.81,73758.0,-5.73,-6.55,-6.51,0,*55
1491685210.36,54644,10.81,73764.5,-5.69,-6.47,-6.47,0,*5D
1491685211.57,54645,10.81,73772.8,-5.71,-6.51,-6.51,0,*55
1491685212.78,54646,10.81,73778.5,-5.71,-6.51,-6.51,0,*56
1491685214.0,54647,10.81,73766.8,-5.73,-6.55,-6.55,0,*55
1491685215.23,54648,10.81,73758.3,-5.73,-6.55,-6.55,0,*5A
1491685216.43,54649,10.81,73754.5,-5.75,-6.55,-6.55,0,*5D
1491685217.65,54650,10.81,73742.8,-5.73,-6.55,-6.55,0,*53
1491685218.87,54651,10.81,73740.5,-5.73,-6.55,-6.55,0,*52
1491685220.1,54652,10.81,73746.8,-5.73,-6.55,-6.55,0,*51
1491685221.33,54653,10.81,73752.8,-5.73,-6.51,-6.55,0,*54
1491685222.55,54654,10.81,73754.0,-5.73,-6.55,-6.51,0,*53
1491685223.77,54655,10.81,73752.0,-5.73,-6.55,-6.55,0,*56
1491685225.0,54656,10.81,73752.3,-5.73,-6.55,-6.55,0,*55
1491685226.22,54657,10.81,73752.0,-5.73,-6.55,-6.55,0,*54
1491685227.42,54658,10.81,73750.3,-5.75,-6.55,-6.55,0,*5D
1491685228.65,54659,10.81,73748.8,-5.73,-6.55,-6.55,0,*5A
1491685229.87,54660,10.81,73752.3,-5.73,-6.55,-6.51,0,*54
1491685231.09,54661,10.81,73750.5,-5.73,-6.55,-6.55,0,*51
1491685232.32,54662,10.81,73744.8,-5.73,-6.55,-6.55,0,*52
1491685233.52,54663,10.81,73754.0,-5.75,-6.55,-6.55,0,*55
1491685234.74,54664,10.81,73754.8,-5.73,-6.55,-6.51,0,*50
1491685235.97,54665,10.81,73754.8,-5.73,-6.55,-6.55,0,*55
1491685237.19,54666,10.81,73748.8,-5.73,-6.55,-6.51,0,*52
1491685238.42,54667,10.81,73748.5,-5.73,-6.55,-6.55,0,*57
1491685239.64,54668,10.81,73754.8,-5.73,-6.55,-6.55,0,*58
1491685240.86,54669,10.81,73750.5,-5.73,-6.55,-6.55,0,*59
1491685242.06,54670,10.81,73752.5,-5.75,-6.55,-6.55,0,*57
1491685243.27,54671,10.81,73750.8,-5.75,-6.55,-6.55,0,*56
1491685244.47,54672,10.81,73762.5,-5.75,-6.59,-6.55,0,*59
1491685245.69,54673,10.81,73764.3,-5.73,-6.51,-6.55,0,*56
1491685246.92,54674,10.81,73754.5,-5.73,-6.55,-6.55,0,*55
1491685248.14,54675,10.81,73746.5,-5.73,-6.55,-6.55,0,*54
1491685249.34,54676,10.81,73750.5,-5.75,-6.55,-6.55,0,*51
1491685250.54,54677,10.81,73748.3,-5.75,-6.55,-6.55,0,*50
1491685251.77,54678,10.81,73750.3,-5.73,-6.55,-6.55,0,*59
1491685252.97,54679,10.81,73752.8,-5.75,-6.51,-6.55,0,*5A
1491685254.19,54680,10.81,73758.3,-5.73,-6.55,-6.55,0,*5E
1491685255.39,54681,10.81,73754.0,-5.75,-6.55,-6.55,0,*59
1491685256.62,54682,10.81,73750.8,-5.73,-6.55,-6.55,0,*5C
1491685257.82,54683,10.81,73756.3,-5.75,-6.55,-6.51,0,*5F
1491685259.02,54684,10.81,73758.8,-5.75,-6.55,-6.55,0,*5C
1491685260.22,54685,10.81,73760.3,-5.75,-6.51,-6.51,0,*5D
1491685261.43,54686,10.81,73756.8,-5.75,-6.55,-6.55,0,*5E
1491685262.63,54687,10.81,73756.3,-5.75,-6.51,-6.55,0,*5B
1491685263.85,54688,10.81,73756.8,-5.73,-6.55,-6.55,0,*56
1491685265.06,54689,10.81,73754.5,-5.75,-6.55,-6.55,0,*51
1491685266.26,54690,10.81,73752.8,-5.75,-6.55,-6.51,0,*5D
1491685267.46,54691,10.81,73754.3,-5.75,-6.55,-6.51,0,*5C
1491685268.66,54692,10.81,73754.0,-5.75,-6.55,-6.55,0,*5B
1491685269.86,54693,10.81,73752.8,-5.75,-6.55,-6.51,0,*5E
1491685271.06,54694,10.81,73752.0,-5.75,-6.51,-6.55,0,*59
1491685272.27,54695,10.81,73750.3,-5.75,-6.55,-6.51,0,*58
1491685273.49,54696,10.81,73748.0,-5.73,-6.55,-6.51,0,*5D
1491685274.69,54697,10.81,73744.8,-5.75,-6.55,-6.55,0,*5E
1491685275.92,54698,10.81,73748.5,-5.73,-6.51,-6.51,0,*57
1491685277.12,54699,10.81,73756.0,-5.75,-6.51,-6.51,0,*50
1491685278.35,54700,10.81,73748.3,-5.73,-6.55,-6.51,0,*53
1491685279.55,54701,10.81,73742.3,-5.75,-6.55,-6.51,0,*54
1491685280.75,54702,10.81,73736.8,-5.75,-6.55,-6.55,0,*53
1491685281.95,54703,10.81,73744.8,-5.75,-6.55,-6.51,0,*56
1491685283.16,54704,10.81,73742.0,-5.75,-6.51,-6.43,0,*56
1491685284.39,54705,10.81,73740.8,-5.73,-6.51,-6.51,0,*52
1491685285.59,54706,10.81,73746.3,-5.75,-6.51,-6.55,0,*53
1491685286.82,54707,10.81,73754.5,-5.73,-6.51,-6.51,0,*50
1491685288.02,54708,10.81,73758.8,-5.75,-6.55,-6.51,0,*5D
1491685289.25,54709,10.81,73752.0,-5.73,-6.51,-6.51,0,*5E
1491685290.47,54710,10.81,73750.0,-5.73,-6.55,-6.51,0,*52
1491685291.67,54711,10.81,73758.3,-5.75,-6.55,-6.55,0,*51
1491685292.9,54712,10.81,73758.5,-5.73,-6.55,-6.51,0,*50
1491685294.13,54713,10.81,73758.3,-5.73,-6.51,-6.51,0,*55
1491685295.33,54714,10.81,73760.0,-5.75,-6.51,-6.55,0,*50
1491685296.53,54715,10.81,73762.3,-5.75,-6.51,-6.51,0,*55
1491685297.74,54716,10.81,73760.8,-5.75,-6.51,-6.43,0,*55
1491685298.94,54717,10.81,73754.8,-5.75,-6.51,-6.55,0,*53
1491685300.15,54718,10.75,73748.0,-5.75,-6.51,-6.51,0,*58
1491685301.35,54719,10.81,73750.0,-5.75,-6.43,-6.51,0,*5A
1491685302.55,54720,10.81,73748.3,-5.75,-6.43,-6.51,0,*50
1491685303.76,54721,10.81,73750.8,-5.75,-6.51,-6.51,0,*52
1491685304.99,54722,10.81,73754.8,-5.73,-6.51,-6.51,0,*57
1491685306.19,54723,10.81,73750.0,-5.75,-6.51,-6.43,0,*53
1491685307.39,54724,10.75,73746.5,-5.75,-6.55,-6.43,0,*50
1491685308.59,54725,10.81,73758.8,-5.75,-6.55,-6.43,0,*51
1491685309.8,54726,10.81,73760.0,-5.75,-6.51,-6.51,0,*55
1491685311.0,54727,10.81,73758.5,-5.75,-6.43,-6.51,0,*57
1491685312.2,54728,10.81,73758.0,-5.75,-6.43,-6.51,0,*58
1491685313.4,54729,10.81,73760.8,-5.75,-6.51,-6.51,0,*5A
1491685314.6,54730,10.81,73766.5,-5.75,-6.55,-6.43,0,*55
1491685315.83,54731,10.81,73770.5,-5.73,-6.43,-6.55,0,*52
1491685317.05,54732,10.81,73766.3,-5.73,-6.43,-6.51,0,*55
1491685318.25,54733,10.81,73764.5,-5.75,-6.55,-6.43,0,*56
1491685319.46,54734,10.81,73772.5,-5.75,-6.51,-6.51,0,*56
1491685320.66,54735,10.81,73772.0,-5.75,-6.43,-6.51,0,*54
1491685321.86,54736,10.81,73772.8,-5.75,-6.55,-6.55,0,*54
1491685323.07,54737,10.81,73768.5,-5.75,-6.51,-6.51,0,*55
1491685324.29,54738,10.81,73770.3,-5.73,-6.51,-6.51,0,*5C
1491685325.52,54739,10.81,73766.3,-5.73,-6.51,-6.51,0,*5D
1491685326.73,54740,10.81,73762.3,-5.75,-6.51,-6.51,0,*55
1491685327.93,54741,10.81,73762.3,-5.75,-6.51,-6.51,0,*54
1491685329.13,54742,10.81,73760.3,-5.75,-6.51,-6.39,0,*59
1491685330.34,54743,10.75,73760.8,-5.75,-6.51,-6.43,0,*55
1491685331.53,54744,10.81,73768.0,-5.75,-6.39,-6.39,0,*51
1491685332.73,54745,10.81,73770.5,-5.75,-6.43,-6.43,0,*50
1491685333.93,54746,10.81,73764.5,-5.75,-6.43,-6.51,0,*50
1491685335.16,54747,10.81,73764.8,-5.73,-6.43,-6.51,0,*57
1491685336.35,54748,10.81,73764.3,-5.75,-6.39,-6.43,0,*50
1491685337.55,54749,10.81,73760.3,-5.75,-6.39,-6.51,0,*52
1491685338.76,54750,10.81,73766.0,-5.75,-6.51,-6.51,0,*54
1491685339.96,54751,10.81,73760.0,-5.75,-6.43,-6.43,0,*55
1491685341.16,54752,10.81,73764.0,-5.75,-6.51,-6.43,0,*55
1491685342.36,54753,10.81,73760.8,-5.75,-6.43,-6.43,0,*57
1491685343.56,54754,10.75,73760.0,-5.75,-6.43,-6.43,0,*50
1491685344.76,54755,10.81,73758.0,-5.75,-6.43,-6.43,0,*51
1491685345.96,54756,10.81,73758.8,-5.75,-6.43,-6.43,0,*52
1491685347.16,54757,10.81,73758.3,-5.75,-6.39,-6.39,0,*53
1491685348.38,54758,10.81,73758.8,-5.73,-6.39,-6.51,0,*54
1491685349.59,54759,10.81,73756.8,-5.75,-6.51,-6.51,0,*5D
1491685350.81,54760,10.81,73758.0,-5.73,-6.43,-6.51,0,*52
1491685352.01,54761,10.81,73758.8,-5.75,-6.43,-6.43,0,*56
1491685353.23,54762,10.81,73750.8,-5.73,-6.39,-6.39,0,*53
1491685354.45,54763,10.81,73754.5,-5.73,-6.43,-6.43,0,*52
1491685355.65,54764,10.81,73756.5,-5.75,-6.43,-6.43,0,*53
1491685356.85,54765,10.81,73756.3,-5.75,-6.43,-6.43,0,*52
1491685358.07,54766,10.81,73756.8,-5.73,-6.39,-6.43,0,*5A
1491685359.27,54767,10.81,73758.5,-5.75,-6.43,-6.43,0,*50
1491685360.5,54768,10.81,73762.3,-5.73,-6.43,-6.43,0,*59
1491685361.72,54769,10.81,73754.5,-5.73,-6.51,-6.43,0,*5B
1491685362.92,54770,10.81,73750.8,-5.75,-6.43,-6.39,0,*5B
1491685364.12,54771,10.81,73752.3,-5.75,-6.51,-6.43,0,*54
1491685365.35,54772,10.81,73752.0,-5.73,-6.43,-6.43,0,*52
1491685366.55,54773,10.81,73754.8,-5.75,-6.43,-6.51,0,*56
1491685367.75,54774,10.81,73762.8,-5.75,-6.51,-6.43,0,*51
1491685368.95,54775,10.81,73766.8,-5.75,-6.55,-6.43,0,*54
1491685370.16,54776,10.81,73766.0,-5.75,-6.43,-6.43,0,*50
1491685371.35,54777,10.81,73760.8,-5.75,-6.39,-6.39,0,*51
1491685372.57,54778,10.81,73758.8,-5.73,-6.43,-6.43,0,*58
1491685373.77,54779,10.81,73762.5,-5.75,-6.43,-6.43,0,*5F
1491685374.99,54780,10.81,73766.3,-5.73,-6.43,-6.39,0,*52
1491685376.22,54781,10.81,73766.8,-5.73,-6.51,-6.43,0,*5D
1491685377.42,54782,10.81,73770.8,-5.75,-6.43,-6.43,0,*5B
1491685378.62,54783,10.75,73772.0,-5.75,-6.43,-6.43,0,*5A
1491685379.82,54784,10.81,73764.0,-5.75,-6.43,-6.51,0,*5E
1491685381.05,54785,10.81,73766.3,-5.73,-6.51,-6.43,0,*59
1491685382.25,54786,10.75,73762.0,-5.75,-6.43,-6.39,0,*52
1491685383.45,54787,10.81,73756.0,-5.75,-6.43,-6.39,0,*53
1491685384.67,54788,10.81,73754.8,-5.73,-6.43,-6.43,0,*57
1491685385.87,54789,10.75,73752.8,-5.75,-6.43,-6.43,0,*50
1491685387.06,54790,10.81,73756.5,-5.75,-6.39,-6.39,0,*58
1491685388.26,54791,10.81,73758.3,-5.75,-6.43,-6.43,0,*59
1491685389.46,54792,10.81,73760.0,-5.75,-6.39,-6.43,0,*57
1491685390.68,54793,10.81,73758.8,-5.73,-6.43,-6.43,0,*5D
1491685391.88,54794,10.81,73758.5,-5.75,-6.43,-6.43,0,*5C
1491685393.08,54795,10.81,73756.3,-5.75,-6.43,-6.39,0,*50
1491685394.28,54796,10.81,73760.3,-5.75,-6.43,-6.43,0,*5E
1491685395.5,54797,10.81,73766.0,-5.73,-6.43,-6.43,0,*59
1491685396.71,54798,10.81,73760.8,-5.75,-6.43,-6.51,0,*53
1491685397.9,54799,10.81,73754.0,-5.75,-6.43,-6.39,0,*5C
1491685399.1,54800,10.81,73760.3,-5.75,-6.43,-6.43,0,*5E
1491685400.31,54801,10.81,73752.5,-5.75,-6.51,-6.43,0,*5C
1491685401.51,54802,10.81,73754.3,-5.75,-6.43,-6.43,0,*5C
1491685402.73,54803,10.81,73758.8,-5.73,-6.43,-6.43,0,*5B
1491685403.93,54804,10.81,73760.8,-5.75,-6.43,-6.43,0,*5A
1491685405.13,54805,10.75,73758.5,-5.75,-6.43,-6.39,0,*56
1491685406.33,54806,10.81,73762.0,-5.75,-6.43,-6.43,0,*58
1491685407.53,54807,10.81,73756.3,-5.75,-6.43,-6.39,0,*54
1491685408.73,54808,10.81,73762.5,-5.75,-6.43,-6.43,0,*56
1491685409.93,54809,10.81,73756.0,-5.75,-6.43,-6.43,0,*57
1491685411.13,54810,10.81,73752.0,-5.75,-6.39,-6.43,0,*52
1491685412.35,54811,10.81,73762.5,-5.73,-6.43,-6.39,0,*55
1491685413.57,54812,10.81,73756.0,-5.73,-6.43,-6.39,0,*56
1491685414.79,54813,10.81,73752.5,-5.73,-6.43,-6.43,0,*5A
1491685415.99,54814,10.81,73752.0,-5.75,-6.39,-6.43,0,*56
1491685417.21,54815,10.81,73752.5,-5.73,-6.43,-6.43,0,*5C
1491685418.41,54816,10.81,73754.3,-5.75,-6.43,-6.39,0,*54
1491685419.63,54817,10.81,73756.0,-5.73,-6.43,-6.43,0,*5E
1491685420.85,54818,10.81,73754.5,-5.73,-6.39,-6.39,0,*51
1491685422.04,54819,10.81,73754.8,-5.75,-6.39,-6.39,0,*56
1491685423.24,54820,10.81,73758.5,-5.75,-6.39,-6.43,0,*51
1491685424.46,54821,10.81,73760.0,-5.73,-6.43,-6.43,0,*5B
1491685425.68,54822,10.81,73758.8,-5.73,-6.39,-6.43,0,*55
1491685426.91,54823,10.81,73760.5,-5.73,-6.43,-6.43,0,*59
1491685428.11,54824,10.81,73760.8,-5.75,-6.43,-6.43,0,*58
1491685429.33,54825,10.81,73762.8,-5.73,-6.39,-6.39,0,*5F
1491685430.55,54826,10.81,73760.0,-5.73,-6.43,-6.43,0,*5C
1491685431.77,54827,10.81,73752.0,-5.73,-6.43,-6.43,0,*5D
1491685432.97,54828,10.81,73754.3,-5.75,-6.43,-6.43,0,*54
1491685434.2,54829,10.81,73762.5,-5.73,-6.43,-6.43,0,*53
1491685435.42,54830,10.81,73766.3,-5.73,-6.51,-6.39,0,*55
1491685436.64,54831,10.81,73766.5,-5.73,-6.43,-6.39,0,*57
1491685437.84,54832,10.81,73762.3,-5.75,-6.39,-6.43,0,*52
1491685439.06,54833,10.81,73760.8,-5.73,-6.43,-6.39,0,*55
1491685440.26,54834,10.81,73762.3,-5.75,-6.43,-6.43,0,*59
1491685441.48,54835,10.81,73766.5,-5.73,-6.39,-6.39,0,*5E
1491685442.67,54836,10.81,73760.3,-5.75,-6.43,-6.39,0,*56
1491685443.87,54837,10.75,73754.5,-5.75,-6.43,-6.43,0,*5A
1491685445.07,54838,10.81,73748.5,-5.75,-6.43,-6.39,0,*58
1491685446.29,54839,10.81,73752.3,-5.73,-6.43,-6.43,0,*52
1491685447.51,54840,10.81,73760.3,-5.73,-6.39,-6.43,0,*51
1491685448.73,54841,10.81,73758.0,-5.73,-6.39,-6.39,0,*5D
1491685449.96,54842,10.81,73756.5,-5.73,-6.43,-6.43,0,*5E
1491685451.15,54843,10.81,73756.5,-5.75,-6.43,-6.39,0,*54
1491685452.38,54844,10.81,73752.5,-5.73,-6.43,-6.43,0,*58
1491685453.58,54845,10.81,73750.3,-5.75,-6.43,-6.43,0,*5F
1491685454.8,54846,10.81,73746.3,-5.73,-6.39,-6.43,0,*57
1491685455.99,54847,10.81,73746.5,-5.75,-6.39,-6.39,0,*5D
1491685457.19,54848,10.81,73754.3,-5.75,-6.43,-6.43,0,*52
1491685458.39,54849,10.75,73750.0,-5.75,-6.43,-6.39,0,*5E
1491685459.58,54850,10.81,73750.3,-5.75,-6.39,-6.43,0,*56
1491685460.81,54851,10.81,73752.8,-5.73,-6.43,-6.43,0,*5C
1491685462.0,54852,10.81,73750.8,-5.75,-6.39,-6.39,0,*59
1491685463.22,54853,10.81,73752.5,-5.73,-6.39,-6.43,0,*53
1491685464.45,54854,10.81,73752.8,-5.73,-6.43,-6.43,0,*59
1491685465.67,54855,10.81,73750.8,-5.73,-6.43,-6.43,0,*58
1491685466.89,54856,10.81,73754.0,-5.73,-6.39,-6.43,0,*56
1491685468.11,54857,10.75,73748.8,-5.73,-6.43,-6.39,0,*57
1491685469.3,54858,10.81,73748.0,-5.75,-6.39,-6.39,0,*53
1491685470.5,54859,10.75,73746.3,-5.75,-6.43,-6.39,0,*5F
1491685471.73,54860,10.81,73748.8,-5.73,-6.43,-6.43,0,*5E
1491685472.95,54861,10.81,73756.3,-5.73,-6.43,-6.39,0,*52
1491685474.14,54862,10.81,73752.0,-5.75,-6.39,-6.43,0,*57
1491685475.36,54863,10.81,73750.5,-5.73,-6.39,-6.43,0,*50
1491685476.58,54864,10.81,73752.8,-5.73,-6.39,-6.43,0,*57
1491685477.81,54865,10.81,73750.8,-5.73,-6.43,-6.43,0,*5B
1491685479.03,54866,10.81,73750.3,-5.73,-6.39,-6.39,0,*58
1491685480.22,54867,10.81,73748.5,-5.75,-6.43,-6.39,0,*52
1491685481.42,54868,10.81,73752.3,-5.75,-6.39,-6.43,0,*5D
1491685482.62,54869,10.81,73750.5,-5.75,-6.39,-6.43,0,*5C
1491685483.84,54870,10.81,73752.3,-5.73,-6.39,-6.43,0,*52
1491685485.06,54871,10.81,73750.3,-5.73,-6.43,-6.39,0,*53
1491685486.28,54872,10.81,73746.0,-5.73,-6.43,-6.43,0,*5D
1491685487.47,54873,10.81,73750.8,-5.75,-6.39,-6.39,0,*5A
1491685488.69,54874,10.81,73744.8,-5.73,-6.39,-6.39,0,*5B
1491685489.92,54875,10.75,73742.0,-5.73,-6.43,-6.43,0,*5A
1491685491.13,54876,10.81,73752.3,-5.73,-6.39,-6.39,0,*59
1491685492.36,54877,10.81,73744.8,-5.73,-6.43,-6.43,0,*58
1491685493.55,54878,10.81,73746.0,-5.75,-6.43,-6.39,0,*5C
1491685494.75,54879,10.81,73744.5,-5.75,-6.43,-6.43,0,*50
1491685495.95,54880,10.81,73746.8,-5.75,-6.43,-6.43,0,*56
1491685497.18,54881,10.81,73742.5,-5.73,-6.43,-6.43,0,*51
1491685498.4,54882,10.81,73744.0,-5.73,-6.43,-6.39,0,*5F
1491685499.61,54883,10.81,73752.8,-5.73,-6.39,-6.39,0,*53
1491685500.83,54884,10.81,73754.5,-5.73,-6.39,-6.43,0,*59
1491685502.04,54885,10.81,73754.8,-5.75,-6.43,-6.43,0,*53
1491685503.25,54886,10.81,73754.8,-5.73,-6.39,-6.39,0,*56
1491685504.48,54887,10.81,73762.0,-5.73,-6.43,-6.43,0,*57
1491685505.7,54888,10.81,73758.8,-5.73,-6.43,-6.39,0,*55
1491685506.91,54889,10.81,73760.0,-5.73,-6.39,-6.39,0,*59
1491685508.11,54890,10.81,73766.8,-5.75,-6.43,-6.43,0,*57
1491685509.33,54891,10.81,73760.0,-5.73,-6.39,-6.39,0,*50
1491685510.55,54892,10.81,73758.3,-5.73,-6.43,-6.43,0,*53
1491685511.77,54893,10.81,73762.3,-5.73,-6.43,-6.39,0,*5F
1491685513.0,54894,10.81,73756.3,-5.73,-6.43,-6.43,0,*55
1491685514.22,54895,10.81,73748.0,-5.73,-6.43,-6.43,0,*54
1491685515.45,54896,10.81,73754.3,-5.73,-6.43,-6.43,0,*57
1491685516.65,54897,10.75,73754.5,-5.75,-6.43,-6.43,0,*50
1491685517.87,54898,10.81,73756.3,-5.73,-6.43,-6.43,0,*59
1491685519.07,54899,10.81,73754.5,-5.75,-6.43,-6.39,0,*53
1491685520.29,54900,10.81,73758.3,-5.73,-6.43,-6.39,0,*54
1491685521.5,54901,10.81,73752.5,-5.73,-6.39,-6.39,0,*58
1491685522.72,54902,10.81,73748.8,-5.73,-6.43,-6.39,0,*56
1491685523.93,54903,10.81,73760.8,-5.75,-6.43,-6.43,0,*5C
1491685525.15,54904,10.81,73758.3,-5.73,-6.43,-6.43,0,*5D
1491685526.35,54905,10.81,73764.5,-5.75,-6.43,-6.43,0,*5A
1491685527.55,54906,10.81,73758.8,-5.75,-6.39,-6.43,0,*54
1491685528.77,54907,10.81,73760.3,-5.73,-6.43,-6.43,0,*5E
1491685529.97,54908,10.81,73760.3,-5.75,-6.43,-6.43,0,*57
1491685531.19,54909,10.81,73754.3,-5.73,-6.43,-6.43,0,*50
1491685532.41,54910,10.81,73752.3,-5.73,-6.43,-6.39,0,*55
1491685533.63,54911,10.81,73748.0,-5.73,-6.39,-6.43,0,*54
1491685534.85,54912,10.81,73744.0,-5.73,-6.43,-6.39,0,*57
1491685536.05,54913,10.81,73744.8,-5.75,-6.43,-6.39,0,*50
1491685537.28,54914,10.81,73752.0,-5.73,-6.43,-6.43,0,*5C
1491685538.5,54915,10.81,73756.5,-5.73,-6.39,-6.43,0,*50
1491685539.72,54916,10.81,73764.3,-5.73,-6.39,-6.43,0,*53
1491685540.94,54917,10.81,73768.3,-5.73,-6.39,-6.43,0,*52
1491685542.13,54918,10.81,73768.3,-5.75,-6.39,-6.43,0,*5B
1491685543.36,54919,10.81,73772.0,-5.73,-6.43,-6.43,0,*51
1491685544.58,54920,10.81,73776.5,-5.73,-6.43,-6.43,0,*5B
1491685545.8,54921,10.81,73776.0,-5.73,-6.43,-6.43,0,*5A
1491685547.03,54922,10.81,73764.0,-5.73,-6.43,-6.43,0,*59
1491685548.22,54923,10.81,73764.3,-5.75,-6.39,-6.39,0,*5E
1491685549.44,54924,10.81,73770.0,-5.73,-6.43,-6.43,0,*5F
1491685550.67,54925,10.81,73762.3,-5.73,-6.43,-6.43,0,*5E
1491685551.89,54926,10.81,73758.5,-5.73,-6.39,-6.39,0,*5D
1491685553.11,54927,10.81,73750.8,-5.73,-6.39,-6.43,0,*51
1491685554.32,54928,10.81,73746.5,-5.73,-6.39,-6.39,0,*53
1491685555.52,54929,10.81,73744.8,-5.75,-6.43,-6.43,0,*54
1491685556.74,54930,10.81,73748.3,-5.73,-6.39,-6.43,0,*57
1491685557.97,54931,10.81,73752.0,-5.73,-6.43,-6.43,0,*5B
1491685559.19,54932,10.81,73756.5,-5.73,-6.39,-6.43,0,*55
1491685560.41,54933,10.75,73754.0,-5.73,-6.43,-6.39,0,*54
1491685561.63,54934,10.81,73756.3,-5.73,-6.43,-6.39,0,*53
1491685562.85,54935,10.81,73764.0,-5.73,-6.43,-6.43,0,*5F
1491685564.05,54936,10.81,73750.5,-5.75,-6.43,-6.43,0,*5A
1491685565.27,54937,10.81,73752.8,-5.73,-6.39,-6.39,0,*5D
1491685566.49,54938,10.81,73764.3,-5.73,-6.43,-6.43,0,*52
1491685567.72,54939,10.81,73768.3,-5.73,-6.43,-6.43,0,*53
1491685568.94,54940,10.75,73758.8,-5.73,-6.43,-6.39,0,*50
1491685570.15,54941,10.81,73762.0,-5.73,-6.39,-6.39,0,*5C
1491685571.38,54942,10.81,73754.8,-5.73,-6.43,-6.43,0,*5F
1491685572.58,54943,10.81,73748.8,-5.75,-6.43,-6.43,0,*58
1491685573.8,54944,10.81,73742.3,-5.73,-6.43,-6.43,0,*59
1491685575.0,54945,10.81,73744.3,-5.75,-6.43,-6.43,0,*5E
1491685576.23,54946,10.81,73740.8,-5.73,-6.43,-6.43,0,*5B
1491685577.45,54947,10.81,73756.0,-5.73,-6.43,-6.43,0,*5A
1491685578.67,54948,10.81,73760.8,-5.73,-6.43,-6.39,0,*58
1491685579.87,54949,10.81,73764.5,-5.75,-6.43,-6.43,0,*52
1491685581.09,54950,10.75,73762.3,-5.73,-6.43,-6.43,0,*5C
1491685582.29,54951,10.81,73760.3,-5.75,-6.43,-6.43,0,*5B
1491685583.49,54952,10.81,73758.8,-5.75,-6.43,-6.39,0,*55
1491685584.72,54953,10.81,73750.8,-5.73,-6.43,-6.43,0,*5F
1491685585.94,54954,10.81,73756.5,-5.73,-6.39,-6.43,0,*55
1491685587.16,54955,10.81,73762.3,-5.73,-6.43,-6.39,0,*54
1491685588.37,54956,10.81,73770.5,-5.73,-6.39,-6.39,0,*5A
1491685589.57,54957,10.75,73772.0,-5.75,-6.43,-6.39,0,*50
1491685590.79,54958,10.81,73774.8,-5.73,-6.39,-6.39,0,*54
1491685592.01,54959,10.81,73772.3,-5.73,-6.43,-6.43,0,*55
1491685593.21,54960,10.81,73772.8,-5.75,-6.43,-6.43,0,*59
1491685594.43,54961,10.81,73772.3,-5.73,-6.43,-6.43,0,*5E
1491685595.63,54962,10.81,73774.3,-5.75,-6.43,-6.43,0,*5B
1491685596.86,54963,10.81,73778.5,-5.73,-6.43,-6.43,0,*5C
1491685598.08,54964,10.81,73780.3,-5.73,-6.43,-6.43,0,*5B
1491685599.28,54965,10.81,73770.0,-5.75,-6.43,-6.39,0,*51
1491685600.5,54966,10.81,73768.3,-5.73,-6.39,-6.43,0,*54
1491685601.72,54967,10.81,73772.5,-5.73,-6.43,-6.39,0,*55
1491685602.92,54968,10.75,73766.3,-5.75,-6.43,-6.43,0,*51
1491685604.14,54969,10.81,73776.8,-5.73,-6.39,-6.39,0,*56
1491685605.36,54970,10.81,73772.8,-5.73,-6.43,-6.43,0,*5E
1491685606.58,54971,10.81,73760.3,-5.73,-6.43,-6.43,0,*5F
1491685607.78,54972,10.75,73756.3,-5.75,-6.39,-6.39,0,*5A
1491685609.0,54973,10.81,73762.0,-5.73,-6.43,-6.43,0,*5D
1491685610.23,54974,10.75,73760.8,-5.73,-6.43,-6.43,0,*5A
1491685611.45,54975,10.81,73752.3,-5.73,-6.39,-6.43,0,*56
1491685612.67,54976,10.81,73748.5,-5.73,-6.43,-6.43,0,*58
1491685613.89,54977,10.81,73748.8,-5.73,-6.43,-6.43,0,*59
1491685615.11,54978,10.75,73746.5,-5.73,-6.39,-6.51,0,*58
1491685616.31,54979,10.81,73744.3,-5.75,-6.43,-6.43,0,*51
1491685617.54,54980,10.75,73746.8,-5.73,-6.43,-6.43,0,*51
1491685618.76,54981,10.81,73742.3,-5.73,-6.43,-6.43,0,*50
1491685619.96,54982,10.81,73742.3,-5.75,-6.43,-6.43,0,*55
1491685621.19,54983,10.75,73742.0,-5.73,-6.43,-6.43,0,*52
1491685622.41,54984,10.81,73748.5,-5.73,-6.51,-6.43,0,*56
1491685623.64,54985,10.75,73756.3,-5.73,-6.51,-6.39,0,*5A
1491685624.86,54986,10.81,73750.3,-5.73,-6.43,-6.43,0,*57
1491685626.08,54987,10.81,73748.3,-5.73,-6.39,-6.43,0,*5B
1491685627.3,54988,10.81,73746.3,-5.73,-6.43,-6.43,0,*59
1491685628.53,54989,10.81,73746.0,-5.73,-6.43,-6.51,0,*5B
1491685629.76,54990,10.81,73752.3,-5.73,-6.51,-6.43,0,*53
1491685630.96,54991,10.81,73762.8,-5.75,-6.43,-6.43,0,*57
1491685632.18,54992,10.81,73760.8,-5.73,-6.51,-6.39,0,*5C
1491685633.41,54993,10.81,73764.0,-5.73,-6.51,-6.43,0,*50
1491685634.63,54994,10.81,73768.5,-5.73,-6.55,-6.43,0,*53
1491685635.86,54995,10.75,73776.0,-5.73,-6.51,-6.43,0,*56
1491685637.09,54996,10.75,73774.3,-5.73,-6.51,-6.43,0,*55
1491685638.32,54997,10.81,73766.0,-5.73,-6.51,-6.51,0,*57
1491685639.54,54998,10.81,73772.0,-5.73,-6.51,-6.51,0,*58
1491685640.77,54999,10.75,73766.8,-5.73,-6.51,-6.51,0,*59
1491685642.0,55000,10.75,73764.3,-5.73,-6.51,-6.55,0,*55
1491685643.23,55001,10.81,73774.8,-5.73,-6.51,-6.51,0,*50
1491685644.43,55002,10.75,73774.8,-5.75,-6.43,-6.43,0,*55
1491685645.66,55003,10.81,73768.8,-5.73,-6.51,-6.51,0,*52
1491685646.89,55004,10.81,73762.5,-5.73,-6.51,-6.51,0,*55
1491685648.11,55005,10.81,73758.3,-5.73,-6.55,-6.51,0,*50
1491685649.34,55006,10.81,73768.5,-5.73,-6.51,-6.51,0,*57
1491685650.57,55007,10.75,73762.8,-5.73,-6.51,-6.43,0,*55
1491685651.79,55008,10.75,73770.0,-5.73,-6.43,-6.43,0,*59
1491685652.99,55009,10.81,73764.5,-5.75,-6.51,-6.43,0,*5D
1491685654.2,55010,10.75,73766.3,-5.75,-6.51,-6.51,0,*56
1491685655.4,55011,10.81,73768.0,-5.75,-6.55,-6.55,0,*57
1491685656.63,55012,10.75,73770.3,-5.73,-6.51,-6.51,0,*52
1491685657.83,55013,10.75,73778.5,-5.75,-6.51,-6.51,0,*55
1491685659.06,55014,10.81,73772.8,-5.73,-6.51,-6.51,0,*54
1491685660.29,55015,10.81,73772.5,-5.73,-6.51,-6.51,0,*55
1491685661.51,55016,10.75,73768.8,-5.73,-6.55,-6.51,0,*52
1491685662.74,55017,10.75,73774.8,-5.73,-6.51,-6.55,0,*53
1491685663.97,55018,10.81,73776.5,-5.73,-6.51,-6.51,0,*58
1491685665.17,55019,10.81,73772.8,-5.75,-6.51,-6.43,0,*5C
1491685666.38,55020,10.81,73778.8,-5.75,-6.51,-6.51,0,*55
1491685667.6,55021,10.81,73782.0,-5.73,-6.43,-6.51,0,*51
1491685668.83,55022,10.75,73768.0,-5.73,-6.51,-6.55,0,*55
1491685670.06,55023,10.75,73760.0,-5.73,-6.51,-6.51,0,*50
1491685671.26,55024,10.75,73758.5,-5.75,-6.51,-6.51,0,*51
1491685672.47,55025,10.75,73760.0,-5.75,-6.51,-6.43,0,*53
1491685673.67,55026,10.75,73756.3,-5.75,-6.51,-6.51,0,*53
1491685674.9,55027,10.75,73756.0,-5.73,-6.51,-6.51,0,*54
1491685676.13,55028,10.75,73758.0,-5.73,-6.51,-6.51,0,*5B
1491685677.34,55029,10.75,73756.3,-5.75,-6.51,-6.43,0,*5F
1491685678.56,55030,10.75,73758.3,-5.73,-6.43,-6.43,0,*52
1491685679.78,55031,10.75,73756.8,-5.73,-6.43,-6.43,0,*53
1491685681.01,55032,10.81,73758.5,-5.73,-6.43,-6.43,0,*50
1491685682.23,55033,10.75,73754.5,-5.73,-6.43,-6.51,0,*52
1491685683.46,55034,10.75,73752.3,-5.73,-6.51,-6.43,0,*55
1491685684.66,55035,10.75,73756.0,-5.75,-6.51,-6.43,0,*52
1491685685.86,55036,10.75,73758.0,-5.75,-6.43,-6.43,0,*52
1491685687.06,55037,10.75,73760.8,-5.75,-6.43,-6.51,0,*50
1491685688.29,55038,10.75,73754.3,-5.73,-6.51,-6.55,0,*5E
1491685689.52,55039,10.75,73752.3,-5.73,-6.43,-6.51,0,*58
1491685690.72,55040,10.81,73756.5,-5.75,-6.43,-6.55,0,*54
1491685691.94,55041,10.75,73752.0,-5.73,-6.51,-6.51,0,*54
1491685693.15,55042,10.75,73750.3,-5.75,-6.51,-6.51,0,*51
1491685694.38,55043,10.75,73748.8,-5.73,-6.51,-6.51,0,*56
1491685695.58,55044,10.75,73758.5,-5.75,-6.51,-6.51,0,*57
1491685696.81,55045,10.81,73758.3,-5.73,-6.51,-6.43,0,*53
1491685698.04,55046,10.81,73754.5,-5.73,-6.51,-6.55,0,*57
1491685699.24,55047,10.81,73750.8,-5.75,-6.51,-6.43,0,*57
1491685700.45,55048,10.75,73746.0,-5.75,-6.51,-6.55,0,*5F
1491685701.65,55049,10.75,73746.3,-5.75,-6.51,-6.51,0,*5A